Time,TemperatureF,DewpointF,PressureIn,WindDirection,WindDirectionDegrees,WindSpeedMPH,WindSpeedGustMPH,Humidity,HourlyPrecipIn,Conditions,Clouds,dailyrainin,SoftwareType,DateUTC
2013-01-16 00:10:00,35.8,30.8,29.66,WNW,292,19.7,-999.0,82,-99.99,,,0.00,Acu-Link.com,2013-01-16 07:10:00,
2013-01-16 00:25:00,36.0,31.0,29.68,WNW,292,25.3,-999.0,82,-99.99,,,0.00,Acu-Link.com,2013-01-16 07:25:00,
2013-01-16 00:41:00,36.1,31.2,29.68,WNW,292,25.7,-999.0,82,-99.99,,,0.00,Acu-Link.com,2013-01-16 07:41:00,
2013-01-16 00:56:00,36.1,31.2,29.68,WNW,292,19.0,-999.0,82,-99.99,,,0.00,Acu-Link.com,2013-01-16 07:56:00,
2013-01-16 01:11:00,36.3,31.7,29.68,West,270,23.7,-999.0,83,-99.99,,,0.00,Acu-Link.com,2013-01-16 08:11:00,
2013-01-16 01:26:00,35.8,31.4,29.69,West,270,17.0,-999.0,84,-99.99,,,0.00,Acu-Link.com,2013-01-16 08:26:00,
2013-01-16 01:41:00,35.6,31.0,29.70,West,270,18.1,-999.0,83,-99.99,,,0.00,Acu-Link.com,2013-01-16 08:41:00,
2013-01-16 01:56:00,36.0,30.7,29.69,WNW,292,23.3,-999.0,81,-99.99,,,0.00,Acu-Link.com,2013-01-16 08:56:00,
2013-01-16 02:22:00,35.6,30.4,29.69,WNW,292,24.2,-999.0,81,-99.99,,,0.00,Acu-Link.com,2013-01-16 09:22:00,
2013-01-16 02:37:00,35.6,30.4,29.70,WNW,292,23.7,-999.0,81,-99.99,,,0.00,Acu-Link.com,2013-01-16 09:37:00,
2013-01-16 02:52:00,35.4,30.2,29.69,West,270,21.7,-999.0,81,-99.99,,,0.00,Acu-Link.com,2013-01-16 09:52:00,
2013-01-16 03:07:00,35.4,30.2,29.69,West,270,19.0,-999.0,81,-99.99,,,0.00,Acu-Link.com,2013-01-16 10:07:00,
2013-01-16 03:22:00,35.4,29.9,29.69,WNW,292,18.1,-999.0,80,-99.99,,,0.00,Acu-Link.com,2013-01-16 10:22:00,
2013-01-16 03:37:00,35.2,29.7,29.69,WNW,292,21.3,-999.0,80,-99.99,,,0.00,Acu-Link.com,2013-01-16 10:37:00,
2013-01-16 03:53:00,35.4,29.6,29.68,West,270,20.1,-999.0,79,-99.99,,,0.00,Acu-Link.com,2013-01-16 10:53:00,
2013-01-16 04:08:00,35.8,29.6,29.69,West,270,24.8,-999.0,78,-99.99,,,0.00,Acu-Link.com,2013-01-16 11:08:00,
2013-01-16 04:23:00,35.8,29.9,29.68,West,270,19.7,-999.0,79,-99.99,,,0.00,Acu-Link.com,2013-01-16 11:23:00,
2013-01-16 04:38:00,35.4,29.9,29.69,WNW,292,19.0,-999.0,80,-99.99,,,0.00,Acu-Link.com,2013-01-16 11:38:00,
2013-01-16 04:53:00,35.6,30.1,29.68,WNW,292,19.7,-999.0,80,-99.99,,,0.00,Acu-Link.com,2013-01-16 11:53:00,
2013-01-16 05:08:00,36.0,29.8,29.68,West,270,24.8,-999.0,78,-99.99,,,0.00,Acu-Link.com,2013-01-16 12:08:00,
2013-01-16 05:23:00,35.6,29.7,29.69,West,270,23.3,-999.0,79,-99.99,,,0.00,Acu-Link.com,2013-01-16 12:23:00,
2013-01-16 05:38:00,35.8,29.9,29.68,WNW,292,25.7,-999.0,79,-99.99,,,0.00,Acu-Link.com,2013-01-16 12:38:00,
2013-01-16 05:53:00,35.8,29.9,29.69,WNW,292,25.7,-999.0,79,-99.99,,,0.00,Acu-Link.com,2013-01-16 12:53:00,
2013-01-16 06:08:00,36.0,29.8,29.70,West,270,20.1,-999.0,78,-99.99,,,0.00,Acu-Link.com,2013-01-16 13:08:00,
2013-01-16 06:23:00,36.0,29.8,29.70,West,270,25.7,-999.0,78,-99.99,,,0.00,Acu-Link.com,2013-01-16 13:23:00,
2013-01-16 06:38:00,36.1,29.6,29.72,WNW,292,21.3,-999.0,77,-99.99,,,0.00,Acu-Link.com,2013-01-16 13:38:00,
2013-01-16 06:54:00,36.0,29.8,29.73,West,270,23.7,-999.0,78,-99.99,,,0.00,Acu-Link.com,2013-01-16 13:54:00,
2013-01-16 07:09:00,35.4,29.6,29.73,WNW,292,23.7,-999.0,79,-99.99,,,0.00,Acu-Link.com,2013-01-16 14:09:00,
2013-01-16 07:24:00,35.6,29.7,29.74,WNW,292,21.3,-999.0,79,-99.99,,,0.00,Acu-Link.com,2013-01-16 14:24:00,
2013-01-16 07:39:00,35.6,29.7,29.75,WNW,292,25.7,-999.0,79,-99.99,,,0.00,Acu-Link.com,2013-01-16 14:39:00,
2013-01-16 07:54:00,35.8,29.6,29.76,WNW,292,21.7,-999.0,78,-99.99,,,0.00,Acu-Link.com,2013-01-16 14:54:00,
2013-01-16 08:09:00,35.8,29.9,29.76,WNW,292,21.7,-999.0,79,-99.99,,,0.00,Acu-Link.com,2013-01-16 15:09:00,
2013-01-16 08:24:00,35.8,29.9,29.77,WNW,292,18.6,-999.0,79,-99.99,,,0.00,Acu-Link.com,2013-01-16 15:24:00,
2013-01-16 08:39:00,35.8,29.9,29.79,WNW,292,25.3,-999.0,79,-99.99,,,0.00,Acu-Link.com,2013-01-16 15:39:00,
2013-01-16 08:54:00,36.5,30.3,29.79,NW,315,21.7,-999.0,78,-99.99,,,0.00,Acu-Link.com,2013-01-16 15:54:00,
2013-01-16 09:09:00,36.9,30.3,29.80,WNW,292,22.1,-999.0,77,-99.99,,,0.00,Acu-Link.com,2013-01-16 16:09:00,
2013-01-16 09:24:00,37.0,30.2,29.79,WNW,292,21.3,-999.0,76,-99.99,,,0.00,Acu-Link.com,2013-01-16 16:24:00,
2013-01-16 09:39:00,36.9,30.0,29.82,WNW,292,19.0,-999.0,76,-99.99,,,0.00,Acu-Link.com,2013-01-16 16:39:00,
2013-01-16 09:54:00,37.0,30.2,29.82,WNW,292,22.1,-999.0,76,-99.99,,,0.00,Acu-Link.com,2013-01-16 16:54:00,
2013-01-16 10:09:00,37.2,30.4,29.82,WNW,292,22.1,-999.0,76,-99.99,,,0.00,Acu-Link.com,2013-01-16 17:09:00,
2013-01-16 10:24:00,37.9,30.7,29.83,WNW,292,18.1,-999.0,75,-99.99,,,0.00,Acu-Link.com,2013-01-16 17:24:00,
2013-01-16 10:39:00,37.4,30.5,29.84,NW,315,15.0,-999.0,76,-99.99,,,0.00,Acu-Link.com,2013-01-16 17:39:00,
2013-01-16 10:54:00,37.6,31.0,29.85,NW,315,19.7,-999.0,77,-99.99,,,0.00,Acu-Link.com,2013-01-16 17:54:00,
2013-01-16 11:09:00,36.9,30.7,29.86,WNW,292,13.4,-999.0,78,-99.99,,,0.00,Acu-Link.com,2013-01-16 18:09:00,
2013-01-16 11:24:00,37.0,31.1,29.87,West,270,15.4,-999.0,79,-99.99,,,0.00,Acu-Link.com,2013-01-16 18:24:00,
2013-01-16 11:39:00,37.4,31.2,29.87,WNW,292,9.8,-999.0,78,-99.99,,,0.00,Acu-Link.com,2013-01-16 18:39:00,
2013-01-16 11:54:00,37.0,31.1,29.88,WNW,292,12.5,-999.0,79,-99.99,,,0.00,Acu-Link.com,2013-01-16 18:54:00,
2013-01-16 12:09:00,36.7,31.1,29.89,WNW,292,11.4,-999.0,80,-99.99,,,0.00,Acu-Link.com,2013-01-16 19:09:00,
2013-01-16 12:24:00,36.9,31.3,29.89,NW,315,7.8,-999.0,80,-99.99,,,0.00,Acu-Link.com,2013-01-16 19:24:00,
2013-01-16 12:39:00,36.7,31.4,29.90,NNW,337,9.8,-999.0,81,-99.99,,,0.00,Acu-Link.com,2013-01-16 19:39:00,
2013-01-16 12:54:00,33.4,30.3,29.90,ENE,67,11.4,-999.0,88,-99.99,,,0.00,Acu-Link.com,2013-01-16 19:54:00,
2013-01-16 13:10:00,33.1,29.9,29.90,ESE,112,3.8,-999.0,88,-99.99,,,0.00,Acu-Link.com,2013-01-16 20:10:00,
2013-01-16 13:25:00,32.7,29.6,29.91,NNE,22,8.3,-999.0,88,-99.99,,,0.00,Acu-Link.com,2013-01-16 20:25:00,
2013-01-16 13:40:00,32.0,29.1,29.92,NNE,22,6.7,-999.0,89,-99.99,,,0.00,Acu-Link.com,2013-01-16 20:40:00,
2013-01-16 13:55:00,31.1,28.2,29.92,NE,45,6.7,-999.0,89,-99.99,,,0.00,Acu-Link.com,2013-01-16 20:55:00,
2013-01-16 14:10:00,31.6,28.5,29.94,WNW,292,6.3,-999.0,88,-99.99,,,0.00,Acu-Link.com,2013-01-16 21:10:00,
2013-01-16 14:25:00,31.5,28.3,29.95,NNW,337,4.3,-999.0,88,-99.99,,,0.00,Acu-Link.com,2013-01-16 21:25:00,
2013-01-16 14:40:00,31.8,29.0,29.96,NNW,337,3.8,-999.0,89,-99.99,,,0.00,Acu-Link.com,2013-01-16 21:40:00,
2013-01-16 14:55:00,31.1,28.8,29.97,NNW,337,2.7,-999.0,91,-99.99,,,0.00,Acu-Link.com,2013-01-16 21:55:00,
2013-01-16 15:10:00,31.1,29.1,29.96,WNW,292,4.7,-999.0,92,-99.99,,,0.00,Acu-Link.com,2013-01-16 22:10:00,
2013-01-16 15:25:00,30.9,29.1,29.98,NW,315,2.7,-999.0,93,-99.99,,,0.00,Acu-Link.com,2013-01-16 22:25:00,
2013-01-16 15:40:00,31.3,29.5,29.98,NW,315,5.1,-999.0,93,-99.99,,,0.00,Acu-Link.com,2013-01-16 22:40:00,
2013-01-16 15:55:00,31.6,30.1,29.98,West,270,4.3,-999.0,94,-99.99,,,0.00,Acu-Link.com,2013-01-16 22:55:00,
2013-01-16 16:10:00,32.2,30.7,30.00,WNW,292,6.7,-999.0,94,-99.99,,,0.00,Acu-Link.com,2013-01-16 23:10:00,
2013-01-16 16:26:00,32.9,30.6,29.99,WNW,292,9.4,-999.0,91,-99.99,,,0.00,Acu-Link.com,2013-01-16 23:26:00,
2013-01-16 16:41:00,32.9,30.6,30.00,WNW,292,6.7,-999.0,91,-99.99,,,0.00,Acu-Link.com,2013-01-16 23:41:00,
2013-01-16 16:56:00,32.7,30.9,30.00,West,270,7.4,-999.0,93,-99.99,,,0.00,Acu-Link.com,2013-01-16 23:56:00,
2013-01-16 17:11:00,32.0,31.5,30.01,WNW,292,7.8,-999.0,98,-99.99,,,0.00,Acu-Link.com,2013-01-17 00:11:00,
2013-01-16 17:26:00,31.8,31.6,30.01,NNW,337,3.1,-999.0,99,-99.99,,,0.00,Acu-Link.com,2013-01-17 00:26:00,
2013-01-16 17:41:00,31.6,31.4,30.02,WNW,292,3.8,-999.0,99,-99.99,,,0.00,Acu-Link.com,2013-01-17 00:41:00,
2013-01-16 17:56:00,31.6,31.4,30.02,NNW,337,3.1,-999.0,99,-99.99,,,0.00,Acu-Link.com,2013-01-17 00:56:00,
2013-01-16 18:12:00,31.6,31.4,30.02,NNW,337,4.7,-999.0,99,-99.99,,,0.00,Acu-Link.com,2013-01-17 01:12:00,
2013-01-16 18:27:00,31.5,31.2,30.04,NNW,337,3.1,-999.0,99,-99.99,,,0.00,Acu-Link.com,2013-01-17 01:27:00,
2013-01-16 18:42:00,31.3,31.0,30.04,NNW,337,5.8,-999.0,99,-99.99,,,0.00,Acu-Link.com,2013-01-17 01:42:00,
2013-01-16 18:57:00,31.1,30.9,30.05,NNE,22,2.2,-999.0,99,-99.99,,,0.00,Acu-Link.com,2013-01-17 01:57:00,
2013-01-16 19:12:00,30.4,29.9,30.05,ENE,67,3.1,-999.0,98,-99.99,,,0.00,Acu-Link.com,2013-01-17 02:12:00,
2013-01-16 19:27:00,29.5,29.0,30.07,NE,45,2.7,-999.0,98,-99.99,,,0.00,Acu-Link.com,2013-01-17 02:27:00,
2013-01-16 19:42:00,28.8,28.3,30.07,ENE,67,1.6,-999.0,98,-99.99,,,0.00,Acu-Link.com,2013-01-17 02:42:00,
2013-01-16 19:57:00,28.6,28.1,30.07,NNW,337,0.0,-999.0,98,-99.99,,,0.00,Acu-Link.com,2013-01-17 02:57:00,
2013-01-16 20:12:00,28.0,27.5,30.07,East,90,1.1,-999.0,98,-99.99,,,0.00,Acu-Link.com,2013-01-17 03:12:00,
2013-01-16 20:27:00,27.5,27.0,30.07,NE,45,2.7,-999.0,98,-99.99,,,0.00,Acu-Link.com,2013-01-17 03:27:00,
2013-01-16 20:42:00,27.0,26.7,30.08,East,90,1.6,-999.0,99,-99.99,,,0.00,Acu-Link.com,2013-01-17 03:42:00,
2013-01-16 20:58:00,26.6,26.4,30.07,ESE,112,0.0,-999.0,99,-99.99,,,0.00,Acu-Link.com,2013-01-17 03:58:00,
2013-01-16 21:13:00,26.1,25.8,30.08,West,270,3.8,-999.0,99,-99.99,,,0.00,Acu-Link.com,2013-01-17 04:13:00,
2013-01-16 21:28:00,26.4,26.2,30.08,West,270,4.7,-999.0,99,-99.99,,,0.00,Acu-Link.com,2013-01-17 04:28:00,
2013-01-16 21:43:00,27.5,27.3,30.08,WNW,292,5.8,-999.0,99,-99.99,,,0.00,Acu-Link.com,2013-01-17 04:43:00,
2013-01-16 21:58:00,28.4,28.2,30.08,NW,315,8.9,-999.0,99,-99.99,,,0.00,Acu-Link.com,2013-01-17 04:58:00,
2013-01-16 22:13:00,28.0,27.5,30.09,WNW,292,6.7,-999.0,98,-99.99,,,0.00,Acu-Link.com,2013-01-17 05:13:00,
2013-01-16 22:28:00,27.9,27.4,30.09,West,270,7.4,-999.0,98,-99.99,,,0.00,Acu-Link.com,2013-01-17 05:28:00,
2013-01-16 22:43:00,28.4,28.2,30.10,West,270,6.7,-999.0,99,-99.99,,,0.00,Acu-Link.com,2013-01-17 05:43:00,
2013-01-16 22:58:00,28.6,28.3,30.10,WNW,292,8.3,-999.0,99,-99.99,,,0.00,Acu-Link.com,2013-01-17 05:58:00,
2013-01-16 23:13:00,29.1,28.9,30.10,WSW,247,6.3,-999.0,99,-99.99,,,0.00,Acu-Link.com,2013-01-17 06:13:00,
2013-01-16 23:28:00,29.7,29.4,30.10,WNW,292,8.9,-999.0,99,-99.99,,,0.00,Acu-Link.com,2013-01-17 06:28:00,
2013-01-16 23:43:00,29.3,28.8,30.11,West,270,6.3,-999.0,98,-99.99,,,0.00,Acu-Link.com,2013-01-17 06:43:00,
2013-01-16 23:58:00,28.9,28.4,30.11,West,270,8.9,-999.0,98,-99.99,,,0.00,Acu-Link.com,2013-01-17 06:58:00,